Tracking 22441 objects as of 1-Mar-2021
HD Live streaming from Space Station
objects crossing your sky now

METEOR 2-8 DEB

Track METEOR 2-8 DEB now!
10-day predictions


NORAD ID: 36862
Int'l Code: 1982-025AZ
Perigee: 861.7 km
Apogee: 885.1 km
Inclination: 82.5 °
Period: 102.3 minutes
Semi major axis: 7244 km
RCS: 0.0072 m2 (small)
Launch date: March 25, 1982
Source: Commonwealth of Independent States (former USSR) (CIS)
Launch site: PLESETSK MISSILE AND SPACE COMPLEX (PKMTR)

Note: This is SATELLITE DEBRIS
aabbcc
Your satellite tracking list
Your tracking list is empty




NASA's NSSDC Master Catalog

Two Line Element Set (TLE):
1 36862U 82025AZ  21058.24879953  .00000919  00000-0  53102-3 0  9998
2 36862  82.5465  63.1234 0016156 147.0795 213.1388 14.07999335342137
Source of the keplerian elements: AFSPC